Location: Litvinovka
(48.6667°N, 34.3500°E)
Time: 11:38:58
(UTC+00:00)

Nadezhda 4 Rocket - Pass Details

Date: 18 September 2020
Orbit: 949 x 992 km, 82.9° (Epoch: 30 October)

Event Time Altitude Azimuth Distance (km) Brightness Sun altitude
Rises 17:05:36 0° 353° (N) 3,642 7.4 -13.3°
Reaches altitude 10° 17:08:10 10° 357° (N) 2,689 6.6 -13.7°
Maximum altitude 17:14:13 59° 77° (ENE) 1,092 4.0 -14.7°
Enters shadow 17:20:07 11° 156° (SSE) 2,628 5.9 -15.6°
